{"data":{"norad_id":47910,"intl_designator":"2021-021BC","name":"STARLINK-2370","alt_names":[],"object_type":"PAYLOAD","status":"ACTIVE","operator":null,"country":"US","launch_date":"2021-03-14","launch_site_code":"AFETR","launch_vehicle":null,"mission":null,"orbit_class":"UNKNOWN","rcs_meters":null,"size_class":null,"mass_kg":null,"dimensions":null,"purposes":["comms"],"wikipedia_slug":null,"has_3d_model":false,"image_url":null,"decayed_at":null,"tle_current":{"epoch":"2026-09-20T01:55:00.361920Z","epoch_age_seconds":66588,"freshness":"FRESH","line1":"1 47910U 21021BC  26263.07986530  .00002546  00000+0  93727-4 0  9992","line2":"2 47910  53.1580  83.4674 0001363  93.8673 266.2484 15.31721092306042","mean_motion":15.31721092,"eccentricity":0.0001363,"inclination_deg":53.158,"raan_deg":83.4674,"arg_perigee_deg":93.8673,"mean_anomaly_deg":266.2484,"bstar":9.3727e-5,"rev_number":30604,"period_min":94.011893387181,"perigee_km":469.74362842787,"apogee_km":471.61061515748,"semimajor_km":6848.8141217927,"source":"CELESTRAK","updated_at":"2026-09-20T09:00:38.757706Z"}}}